Regional Weather Roundup
Issued by NWS Cleveland, OH

Home | Current Version | Previous Version | Graphics & Text | Print | Product List | Glossary On
Versions: 1 2 3 4 5 6 7 8 9 10 11 12 13 14 15 16 17 18 19 20 21 22 23 24 25 26 27 28 29 30 31 32 33 34 35 36 37 38 39 40 41 42 43 44 45 46 47 48 49 50
000
ASUS41 KCLE 270600
RWRCLE
OHIO REGIONAL WEATHER ROUNDUP
NATIONAL WEATHER SERVICE WILMINGTON, OH
200 AM EDT WED MAY 27 2015

NOTE: "FAIR" INDICATES FEW OR NO CLOUDS BELOW 12,000 FEET WITH NO
SIGNIFICANT WEATHER AND/OR OBSTRUCTIONS TO VISIBILITY.

OHZ001>008-015>018-024>027-034-035-043-044-270700-
   NORTHWEST OHIO

CITY           SKY/WX    TMP DP  RH WIND       PRES   REMARKS
DEFIANCE       MOCLDY    69  63  81 SW8       29.95R
FINDLAY        MOCLDY    70  65  84 S15       29.98R
TOLEDO EXPRESS MOCLDY    69  65  86 SW12      29.94R
TOLEDO EXEC    MOCLDY    70  64  81 SW12      29.95R
LIMA           MOCLDY    68  65  90 S10       30.00R
$$

OHZ009>014-019>023-028>033-038-089-270700-
   NORTHEAST OHIO

CITY           SKY/WX    TMP DP  RH WIND       PRES   REMARKS
CLE-HOPKINS    CLOUDY    68  65  90 S13       30.00F
CLE-LAKEFRONT  RAIN      70  65  84 S16       29.97F
CUY CO. ARPT   NOT AVBL
LORAIN-ELYRIA  CLOUDY    68  65  90 SW13      29.99F
ASHTABULA      LGT RAIN  67  66  97 S9        30.00F
AKRON-CANTON   CLOUDY    67  64  90 S13       30.04S
WOOSTER        NOT AVBL
MANSFIELD      CLOUDY    67  66  97 S14       30.03S
YOUNGSTOWN     LGT RAIN  67  65  93 S7        30.04F
$$

OHZ042-051>053-060>062-070>072-077>081-270700-
  SOUTHWEST OHIO

CITY           SKY/WX    TMP DP  RH WIND       PRES   REMARKS
CINC-COVINGTON CLOUDY    67  65  93 S10       30.07R
CINC-LUNKEN    CLOUDY    67  66  97 SW6       30.07R
HAMILTON       CLOUDY    69  66  90 S3        30.06R
DAYTON         NOT AVBL
WRIGHT-PAT AFB NOT AVBL
DAYTON GENERAL CLOUDY    67  65  93 S10       30.05R
WILMINGTON     CLOUDY    66  63  90 SW13      30.06F
$$

OHZ036-037-039>041-045>050-054>059-063>069-073>076-082>088-270700-
  CENTRAL AND SOUTHEAST OHIO

CITY           SKY/WX    TMP DP  RH WIND       PRES   REMARKS
COLUMBUS       MOCLDY    67  65  93 S9        30.05S
OSU AIRPORT    PTCLDY    67  65  93 S8        30.05S
BOLTON FIELD   NOT AVBL
RICKENBACK AFB NOT AVBL
NEWARK         CLOUDY    67  65  93 S7        30.06R
MARION         MOCLDY    68  65  90 S13       30.03R
LANCASTER      MOCLDY    68  64  87 S7        30.07S
ZANESVILLE     CLOUDY    67  64  90 S6        30.08S
NEW PHILLY     NOT AVBL
$$


USA.gov is the U.S. government's official web portal to all federal, state and local government web resources and services.